Date,TemperatureHighF,TemperatureAvgF,TemperatureLowF,DewpointHighF,DewpointAvgF,DewpointLowF,HumidityHigh,HumidityAvg,HumidityLow,PressureMaxIn,PressureMinIn,WindSpeedMaxMPH,WindSpeedAvgMPH,GustSpeedMaxMPH,PrecipitationSumIn
2013-11-1,92.6,85.5,82.8,81.3,78.1,75.8,87,79,67,29.90,29.79,9,4,17,0.00
2013-11-2,90.9,85.4,79.8,80.2,78.2,75.6,88,79,71,29.90,29.79,5,3,14,0.00
2013-11-3,84.7,80.9,76.1,79.0,75.8,71.4,92,85,73,29.93,29.84,10,3,20,0.06
2013-11-4,82.6,79.0,75.5,75.2,73.6,72.5,92,84,74,29.97,29.87,8,3,18,0.02
2013-11-5,82.5,78.5,76.2,75.9,74.5,72.5,94,88,77,29.94,29.82,7,2,15,0.76
2013-11-6,83.7,79.6,75.3,77.2,75.8,73.8,97,88,77,29.91,29.82,11,5,21,3.41
2013-11-7,80.8,78.7,77.0,79.1,77.1,75.5,98,95,92,29.96,29.84,18,3,27,10.00
2013-11-8,80.3,77.8,75.2,78.4,76.4,74.2,98,96,90,29.92,29.80,24,4,24,6.38
2013-11-9,84.7,79.9,76.0,78.2,76.8,74.8,97,91,79,29.93,29.83,9,2,13,0.51
2013-11-10,85.0,79.7,75.9,78.9,76.7,74.4,97,91,80,29.98,29.85,5,2,12,0.61
2013-11-11,90.0,81.6,76.2,79.5,77.4,74.7,97,87,71,29.98,29.84,4,1,22,0.53
2013-11-12,88.2,83.1,76.2,79.3,77.7,73.7,97,84,72,29.96,29.82,9,2,19,0.26
2013-11-13,91.5,81.1,76.0,79.4,76.2,74.1,96,86,64,29.94,29.83,5,1,15,0.24
2013-11-14,83.4,80.6,76.6,78.7,77.0,75.2,96,89,81,29.94,29.84,13,2,13,0.09
2013-11-15,83.1,79.6,77.7,77.8,76.7,75.7,95,91,82,29.94,29.82,12,2,12,0.00
2013-11-21,86.1,82.2,78.2,77.5,76.0,74.0,91,82,71,29.98,29.87,6,3,14,0.02
2013-11-22,83.3,79.6,77.0,78.0,76.3,74.8,96,90,83,29.98,29.86,3,0,8,0.99
2013-11-23,87.9,80.3,77.5,77.8,76.1,74.3,93,87,72,29.97,29.85,3,1,12,0.03
2013-11-24,82.4,78.4,75.0,77.1,75.1,73.0,96,90,80,29.98,29.89,10,3,17,0.97
2013-11-25,83.0,78.6,75.5,77.3,75.4,73.7,95,90,83,29.98,29.86,7,3,15,0.06
2013-11-26,85.2,79.8,75.8,77.2,75.6,73.9,94,87,76,29.95,29.83,5,1,10,0.00
2013-11-27,78.8,74.1,69.7,76.3,68.9,64.4,98,84,68,30.17,29.86,24,6,26,4.36
2013-11-28,75.6,72.8,71.1,72.1,69.3,66.7,97,89,75,30.16,30.06,21,5,21,3.28
2013-11-29,72.8,70.5,68.3,71.9,69.7,67.4,98,97,96,30.14,30.02,24,8,28,11.45
2013-11-30,73.0,70.5,68.9,71.2,69.5,68.1,99,97,89,30.12,29.99,32,13,32,5.35